DateTimeUTC,F1_A11,F1_S11,BsB_S11,BsG_S11,BsR_S11,BbsB_S11,BbsG_S11,BbsR_S11,BaB_A11,BaG_A11,BaR_A11,Tu_S11,T_S11,Uu_S11,U_S11,P_S11,T1_A11
2021-07-20T00:00:00Z,00000200,20000000,,,,,,,-000.01,-000.35,0000.06,19.5,26.0,16.4,11.0,0673.9,31.1
2021-07-20T00:01:00Z,00000200,20000000,,,,,,,0000.26,-000.03,0000.02,19.5,26.0,16.2,10.9,0673.9,31.1
2021-07-20T00:02:00Z,00000200,20000000,,,,,,,-000.33,0000.31,-000.15,19.5,26.0,16.2,10.9,0673.9,31.1
2021-07-20T00:03:00Z,00000200,60000000,,,,,,,0000.11,0000.10,0000.58,19.5,26.0,16.2,10.9,0673.9,31.1
2021-07-20T00:04:00Z,00000200,40000000,0002.38,0001.12,0000.87,0000.73,0000.37,0000.43,0000.60,0000.70,-000.08,19.5,25.8,15.9,10.9,0674.8,31.1
2021-07-20T00:05:00Z,00000200,00000000,0001.98,0001.30,0000.75,-000.07,0000.07,0000.12,0000.84,0000.40,0000.52,19.6,25.8,16.0,11.0,0674.9,31.1
2021-07-20T00:06:00Z,00000200,00000000,0002.16,0001.67,0001.04,0000.18,0000.13,0000.21,0000.18,0000.26,0000.05,19.6,25.7,16.1,11.0,0674.9,31.1
2021-07-20T00:07:00Z,00000200,00000000,0002.05,0001.44,0000.85,0000.43,0000.29,0000.34,0000.84,0000.91,0000.85,19.6,25.7,16.1,11.1,0674.9,31.1
2021-07-20T00:08:00Z,00000200,00000000,0001.97,0001.43,0000.83,0000.35,0000.40,0000.19,0000.33,0000.09,-000.11,19.6,25.7,16.1,11.1,0674.9,31.1
2021-07-20T00:09:00Z,00000200,00000000,0002.35,0001.04,0001.28,0000.22,0000.49,0000.73,0000.43,0000.42,0000.80,19.6,25.7,16.1,11.0,0674.9,31.1
2021-07-20T00:10:00Z,00000200,00000000,0001.91,0001.16,0000.79,0000.23,0000.36,0000.17,0000.83,0000.72,0000.25,19.6,25.7,16.0,11.0,0674.9,31.1
2021-07-20T00:11:00Z,00000200,00000000,0001.50,0001.51,0001.15,0000.37,-000.09,0000.46,0000.21,0000.40,0000.34,19.5,25.7,16.0,11.0,0674.8,31.1
2021-07-20T00:12:00Z,00000200,00000000,0001.55,0001.35,0000.74,0000.10,0000.39,0000.37,0000.89,0000.55,0000.59,19.6,25.7,16.0,11.1,0674.9,31.1
2021-07-20T00:13:00Z,00000200,00000000,0001.91,0001.28,0000.83,0000.58,0000.15,0000.62,0000.37,0000.24,0000.25,19.6,25.7,16.0,11.0,0674.8,31.1
2021-07-20T00:14:00Z,00000200,00000000,0002.04,0001.13,0000.64,0000.40,0000.27,0000.01,0000.18,0000.55,0000.27,19.6,25.7,16.1,11.1,0674.8,31.1
2021-07-20T00:15:00Z,00000200,00000000,0002.35,0001.17,0000.78,0000.75,0000.18,0000.35,0000.67,0000.69,0000.18,19.6,25.7,16.0,11.1,0674.8,31.1
2021-07-20T00:16:00Z,00000200,00000000,0001.99,0001.30,0000.76,0000.06,0000.24,0000.20,0000.40,0000.17,0000.39,19.6,25.7,16.1,11.1,0674.8,31.1
2021-07-20T00:17:00Z,00000200,00000000,0001.20,0001.23,0000.82,0000.21,0000.26,0000.02,0000.28,0000.24,0000.50,19.6,25.7,16.1,11.1,0674.8,31.1
2021-07-20T00:18:00Z,00000200,00000000,0001.73,0001.26,0001.11,0000.77,0000.29,0000.19,0000.75,0000.55,0000.21,19.6,25.7,16.0,11.1,0674.8,31.1
2021-07-20T00:19:00Z,00000200,00000000,0002.25,0001.46,0000.82,0000.49,0000.14,0000.11,0000.71,0000.56,0000.46,19.6,25.7,16.1,11.1,0674.8,31.1
2021-07-20T00:20:00Z,00000200,00000000,0001.92,0001.31,0001.04,0000.77,0000.06,0000.27,0000.34,0000.44,0000.26,19.6,25.7,15.9,11.0,0674.8,31.1
2021-07-20T00:21:00Z,00000200,00000000,0002.15,0001.37,0000.89,0000.22,0000.23,-000.02,0000.52,0000.43,0000.31,19.6,25.7,16.1,11.1,0674.8,31.1
2021-07-20T00:22:00Z,00000200,00000000,0001.69,0001.56,0000.65,-000.01,0000.28,0000.05,-000.02,0000.41,0000.55,19.6,25.7,16.0,11.1,0674.8,31.1
2021-07-20T00:23:00Z,00000200,00000000,0001.28,0001.28,0000.86,0000.25,-000.01,0000.25,0001.05,0000.56,0000.21,19.6,25.7,16.1,11.1,0674.8,31.1
2021-07-20T00:24:00Z,00000200,00000000,0002.10,0001.32,0000.86,-000.22,0000.01,0000.11,0000.36,0000.42,0000.39,19.6,25.6,16.1,11.1,0674.8,31.1
2021-07-20T00:25:00Z,00000200,00000000,0002.42,0001.50,0001.08,0000.39,0000.29,0000.56,0000.54,0000.45,0000.31,19.6,25.7,16.0,11.1,0674.8,31.1
2021-07-20T00:26:00Z,00000200,00000000,0001.94,0001.56,0000.90,0000.48,0000.43,0000.29,0000.66,0000.74,0000.42,19.6,25.7,16.0,11.0,0674.8,31.1
2021-07-20T00:27:00Z,00000200,00000000,0002.25,0001.37,0000.87,0000.50,0000.16,0000.34,0000.64,0000.62,0000.38,19.6,25.6,16.1,11.1,0674.8,31.1
2021-07-20T00:28:00Z,00000200,00000000,0002.71,0001.59,0001.14,0000.12,0000.41,0000.19,0000.44,0000.45,0000.70,19.6,25.6,16.2,11.2,0674.8,31.1
2021-07-20T00:29:00Z,00000200,00000000,0001.92,0001.30,0000.89,0000.77,0000.23,0000.27,0000.65,0000.31,0000.29,19.6,25.6,16.2,11.2,0674.8,31.1
2021-07-20T00:30:00Z,00000200,00000000,0002.40,0001.28,0000.77,0000.25,0000.28,0000.11,0000.71,0000.63,0000.40,19.6,25.7,16.2,11.2,0674.8,31.1
2021-07-20T00:31:00Z,00000200,00000000,0002.07,0001.32,0001.01,0000.48,0000.47,0000.24,0000.53,0000.71,0000.52,19.6,25.7,16.1,11.1,0674.8,31.1
2021-07-20T00:32:00Z,00000200,00000000,0001.68,0001.74,0000.73,0000.74,0000.12,0000.01,0000.71,0000.64,0000.42,19.6,25.7,16.2,11.2,0674.8,31.1
2021-07-20T00:33:00Z,00000200,00000000,0002.19,0001.73,0001.33,0000.56,0000.29,0000.14,0000.48,0000.39,0000.16,19.6,25.6,16.2,11.2,0674.8,31.1
2021-07-20T00:34:00Z,00000200,00000000,0002.06,0001.48,0001.46,0000.39,0000.52,0000.11,0000.81,0000.67,0000.80,19.6,25.6,16.2,11.2,0674.8,31.1
2021-07-20T00:35:00Z,00000200,00000000,0003.46,0001.64,0000.85,0000.14,0000.26,0000.09,0000.57,0000.58,0000.65,19.6,25.6,16.2,11.2,0674.8,31.1
2021-07-20T00:36:00Z,00000200,00000000,0003.15,0001.69,0001.12,0000.34,0000.37,0000.16,0000.42,0000.18,0000.37,19.6,25.6,16.3,11.2,0674.8,31.1
2021-07-20T00:37:00Z,00000200,00000000,0002.29,0001.67,0001.06,0001.10,0000.28,0000.13,0000.47,0000.98,0000.16,19.6,25.6,16.1,11.1,0674.9,31.1
2021-07-20T00:38:00Z,00000200,00000000,0002.93,0002.25,0001.23,0000.56,0000.08,0000.26,0000.88,0000.69,0000.60,19.6,25.6,16.2,11.2,0674.8,31.1
2021-07-20T00:39:00Z,00000200,00000000,0002.82,0001.75,0001.29,0000.69,0000.50,0000.56,0000.66,0000.33,0000.48,19.6,25.6,16.2,11.2,0674.9,31.1
2021-07-20T00:40:00Z,00000200,00000000,0002.45,0001.67,0000.95,0001.17,0000.05,0000.53,0000.63,0000.47,0000.13,19.6,25.6,16.2,11.2,0674.8,31.1
2021-07-20T00:41:00Z,00000200,00000000,0002.35,0001.85,0000.83,-000.20,0000.20,0000.29,0000.93,0001.05,0000.85,19.6,25.6,16.2,11.2,0674.8,31.1
2021-07-20T00:42:00Z,00000200,00000000,0002.88,0001.91,0000.74,0000.60,0000.26,0000.29,0000.51,0000.39,0000.48,19.6,25.6,16.2,11.2,0674.8,31.1
2021-07-20T00:43:00Z,00000200,00000000,0002.12,0001.87,0000.90,0000.51,0000.17,0000.35,0000.59,0000.50,0000.38,19.6,25.6,16.3,11.3,0674.8,31.1
2021-07-20T00:44:00Z,00000200,00000000,0002.59,0001.89,0001.52,0000.16,0000.47,0000.41,0000.90,0000.83,0000.62,19.6,25.6,16.2,11.2,0674.8,31.1
2021-07-20T00:45:00Z,00000200,00000000,0001.80,0001.95,0001.15,0000.43,0000.34,0000.31,0000.83,0000.68,0000.87,19.6,25.6,16.3,11.3,0674.8,31.1
2021-07-20T00:46:00Z,00000200,00000000,0003.32,0002.17,0001.26,-000.11,0000.48,0000.33,0000.66,0000.73,0000.25,19.6,25.6,16.2,11.2,0674.8,31.1
2021-07-20T00:47:00Z,00000200,00000000,0002.43,0001.73,0001.48,0000.53,0000.35,0000.20,0000.47,0000.43,0000.56,19.6,25.6,16.2,11.2,0674.8,31.1
2021-07-20T00:48:00Z,00000200,00000000,0002.64,0001.91,0001.10,0000.97,0000.60,0000.60,0000.98,0000.66,0000.58,19.6,25.6,16.2,11.2,0674.8,31.1
2021-07-20T00:49:00Z,00000200,00000000,0004.67,0001.93,0001.25,0000.35,0000.34,0000.14,0001.05,0001.02,0000.68,19.6,25.6,16.3,11.3,0674.8,31.1
2021-07-20T00:50:00Z,00000200,00000000,0003.08,0002.67,0001.55,0000.51,0000.39,0000.43,0000.60,0000.61,0000.17,19.6,25.6,16.3,11.3,0674.8,31.1
2021-07-20T00:51:00Z,00000200,00000000,0003.72,0002.31,0001.53,0000.70,0000.07,0000.37,0000.55,0001.06,0000.97,19.6,25.6,16.3,11.3,0674.8,31.1
2021-07-20T00:52:00Z,00000200,00000000,0003.48,0002.41,0001.41,0000.46,0000.13,0000.19,0001.29,0000.91,0000.52,19.6,25.6,16.3,11.3,0674.8,31.1
2021-07-20T00:53:00Z,00000200,00000000,0003.53,0002.33,0001.55,0000.49,0000.18,0000.71,0000.73,0000.74,0000.79,19.6,25.6,16.3,11.3,0674.8,31.1
2021-07-20T00:54:00Z,00000200,00000000,0003.73,0002.89,0001.19,0000.44,0000.40,0000.16,0000.95,0000.82,0000.54,19.6,25.6,16.3,11.3,0674.8,31.1
2021-07-20T00:55:00Z,00000200,00000000,0003.22,0002.12,0001.41,0000.49,0000.68,0000.42,0001.03,0000.99,0000.91,19.6,25.6,16.3,11.3,0674.8,31.1
2021-07-20T00:56:00Z,00000200,00000000,0003.75,0002.69,0001.63,0000.26,0000.37,0000.51,0001.01,0000.55,0000.76,19.6,25.6,16.3,11.3,0674.8,31.1
2021-07-20T00:57:00Z,00000200,40000000,,,,,,,-000.03,0000.43,-000.28,19.6,25.6,16.0,11.1,0674.9,31.1
2021-07-20T00:58:00Z,00000200,60000000,,,,,,,0000.30,-000.19,0000.14,19.4,25.7,16.4,11.2,0673.8,31.1
2021-07-20T00:59:00Z,00000200,20000000,,,,,,,-000.40,-000.18,-000.15,19.4,25.8,16.4,11.1,0673.8,31.1
